Year,Month,Day,Hour,Minute,Value (Times are PST for temperature in C)
2013,08,21,00,00,14.20
2013,08,21,00,01,14.20
2013,08,21,00,02,14.20
2013,08,21,00,03,14.20
2013,08,21,00,04,14.20
2013,08,21,00,05,14.20
2013,08,21,00,06,14.20
2013,08,21,00,07,14.20
2013,08,21,00,08,14.20
2013,08,21,00,09,14.20
2013,08,21,00,10,14.10
2013,08,21,00,11,14.10
2013,08,21,00,12,14.10
2013,08,21,00,13,14.10
2013,08,21,00,14,14.10
2013,08,21,00,15,14.10
2013,08,21,00,16,14.10
2013,08,21,00,17,14.10
2013,08,21,00,18,14.10
2013,08,21,00,19,14.10
2013,08,21,00,20,14.00
2013,08,21,00,21,14.00
2013,08,21,00,22,14.00
2013,08,21,00,23,14.00
2013,08,21,00,24,14.00
2013,08,21,00,25,13.90
2013,08,21,00,26,13.90
2013,08,21,00,27,13.90
2013,08,21,00,28,13.90
2013,08,21,00,29,13.80
2013,08,21,00,30,13.80
2013,08,21,00,31,13.80
2013,08,21,00,32,13.80
2013,08,21,00,33,13.70
2013,08,21,00,34,13.70
2013,08,21,00,35,13.70
2013,08,21,00,36,13.70
2013,08,21,00,37,13.70
2013,08,21,00,38,13.70
2013,08,21,00,39,13.60
2013,08,21,00,40,13.60
2013,08,21,00,41,13.60
2013,08,21,00,42,13.60
2013,08,21,00,43,13.60
2013,08,21,00,44,13.60
2013,08,21,00,45,13.60
2013,08,21,00,46,13.50
2013,08,21,00,47,13.50
2013,08,21,00,48,13.40
2013,08,21,00,49,13.40
2013,08,21,00,50,13.30
2013,08,21,00,51,13.30
2013,08,21,00,52,13.30
2013,08,21,00,53,13.30
2013,08,21,00,54,13.20
2013,08,21,00,55,13.20
2013,08,21,00,56,13.20
2013,08,21,00,57,13.20
2013,08,21,00,58,13.20
2013,08,21,00,59,13.10
2013,08,21,01,00,13.10
2013,08,21,01,01,13.10
2013,08,21,01,02,13.10
2013,08,21,01,03,13.10
2013,08,21,01,04,13.10
2013,08,21,01,05,13.00
2013,08,21,01,06,13.00
2013,08,21,01,07,13.00
2013,08,21,01,08,13.00
2013,08,21,01,09,13.00
2013,08,21,01,10,12.90
2013,08,21,01,11,12.90
2013,08,21,01,12,12.90
2013,08,21,01,13,12.90
2013,08,21,01,14,12.90
2013,08,21,01,15,12.90
2013,08,21,01,16,12.90
2013,08,21,01,17,12.90
2013,08,21,01,18,12.90
2013,08,21,01,19,12.90
2013,08,21,01,20,12.90
2013,08,21,01,21,12.90
2013,08,21,01,22,12.90
2013,08,21,01,23,12.80
2013,08,21,01,24,12.80
2013,08,21,01,25,12.80
2013,08,21,01,26,12.80
2013,08,21,01,27,12.80
2013,08,21,01,28,12.80
2013,08,21,01,29,12.80
2013,08,21,01,30,12.80
2013,08,21,01,31,12.80
2013,08,21,01,32,12.80
2013,08,21,01,33,12.80
2013,08,21,01,34,12.80
2013,08,21,01,35,12.80
2013,08,21,01,36,12.80
2013,08,21,01,37,12.70
2013,08,21,01,38,12.70
2013,08,21,01,39,12.70
2013,08,21,01,40,12.70
2013,08,21,01,41,12.70
2013,08,21,01,42,12.70
2013,08,21,01,43,12.70
2013,08,21,01,44,12.70
2013,08,21,01,45,12.70
2013,08,21,01,46,12.70
2013,08,21,01,47,12.70
2013,08,21,01,48,12.70
2013,08,21,01,49,12.70
2013,08,21,01,50,12.70
2013,08,21,01,51,12.70
2013,08,21,01,52,12.70
2013,08,21,01,53,12.70
2013,08,21,01,54,12.70
2013,08,21,01,55,12.70
2013,08,21,01,56,12.70
2013,08,21,01,57,12.70
2013,08,21,01,58,12.70
2013,08,21,01,59,12.70
2013,08,21,02,00,12.60
2013,08,21,02,01,12.60
2013,08,21,02,02,12.60
2013,08,21,02,03,12.60
2013,08,21,02,04,12.60
2013,08,21,02,05,12.60
2013,08,21,02,06,12.50
2013,08,21,02,07,12.50
2013,08,21,02,08,12.50
2013,08,21,02,09,12.50
2013,08,21,02,10,12.50
2013,08,21,02,11,12.40
2013,08,21,02,12,12.40
2013,08,21,02,13,12.40
2013,08,21,02,14,12.40
2013,08,21,02,15,12.40
2013,08,21,02,16,12.40
2013,08,21,02,17,12.40
2013,08,21,02,18,12.40
2013,08,21,02,19,12.40
2013,08,21,02,20,12.40
2013,08,21,02,21,12.40
2013,08,21,02,22,12.40
2013,08,21,02,23,12.40
2013,08,21,02,24,12.30
2013,08,21,02,25,12.30
2013,08,21,02,26,12.30
2013,08,21,02,27,12.30
2013,08,21,02,28,12.30
2013,08,21,02,29,12.30
2013,08,21,02,30,12.40
2013,08,21,02,31,12.40
2013,08,21,02,32,12.40
2013,08,21,02,33,12.40
2013,08,21,02,34,12.40
2013,08,21,02,35,12.40
2013,08,21,02,36,12.40
2013,08,21,02,37,12.40
2013,08,21,02,38,12.40
2013,08,21,02,39,12.40
2013,08,21,02,40,12.40
2013,08,21,02,41,12.40
2013,08,21,02,42,12.40
2013,08,21,02,43,12.40
2013,08,21,02,44,12.30
2013,08,21,02,45,12.30
2013,08,21,02,46,12.30
2013,08,21,02,47,12.30
2013,08,21,02,48,12.30
2013,08,21,02,49,12.30
2013,08,21,02,50,12.20
2013,08,21,02,51,12.20
2013,08,21,02,52,12.20
2013,08,21,02,53,12.10
2013,08,21,02,54,12.10
2013,08,21,02,55,12.10
2013,08,21,02,56,12.10
2013,08,21,02,57,12.00
2013,08,21,02,58,12.00
2013,08,21,02,59,12.00
2013,08,21,03,00,11.90
2013,08,21,03,01,11.90
2013,08,21,03,02,11.90
2013,08,21,03,03,11.90
2013,08,21,03,04,11.90
2013,08,21,03,05,11.90
2013,08,21,03,06,11.90
2013,08,21,03,07,11.80
2013,08,21,03,08,11.80
2013,08,21,03,09,11.80
2013,08,21,03,10,11.80
2013,08,21,03,11,11.80
2013,08,21,03,12,11.80
2013,08,21,03,13,11.80
2013,08,21,03,14,11.80
2013,08,21,03,15,11.80
2013,08,21,03,16,11.70
2013,08,21,03,17,11.70
2013,08,21,03,18,11.70
2013,08,21,03,19,11.70
2013,08,21,03,20,11.70
2013,08,21,03,21,11.70
2013,08,21,03,22,11.70
2013,08,21,03,23,11.70
2013,08,21,03,24,11.70
2013,08,21,03,25,11.70
2013,08,21,03,26,11.70
2013,08,21,03,27,11.70
2013,08,21,03,28,11.60
2013,08,21,03,29,11.60
2013,08,21,03,30,11.60
2013,08,21,03,31,11.60
2013,08,21,03,32,11.60
2013,08,21,03,33,11.60
2013,08,21,03,34,11.60
2013,08,21,03,35,11.60
2013,08,21,03,36,11.60
2013,08,21,03,37,11.60
2013,08,21,03,38,11.60
2013,08,21,03,39,11.60
2013,08,21,03,40,11.60
2013,08,21,03,41,11.60
2013,08,21,03,42,11.60
2013,08,21,03,43,11.60
2013,08,21,03,44,11.60
2013,08,21,03,45,11.60
2013,08,21,03,49,11.60
2013,08,21,03,50,11.60
2013,08,21,03,51,11.60
2013,08,21,03,52,11.60
2013,08,21,03,53,11.60
2013,08,21,03,54,11.60
2013,08,21,03,55,11.60
2013,08,21,03,56,11.50
2013,08,21,03,57,11.50
2013,08,21,03,58,11.50
2013,08,21,03,59,11.40
2013,08,21,04,00,11.40
2013,08,21,04,01,11.40
2013,08,21,04,02,11.40
2013,08,21,04,03,11.40
2013,08,21,04,04,11.30
2013,08,21,04,05,11.30
2013,08,21,04,06,11.30
2013,08,21,04,07,11.30
2013,08,21,04,08,11.30
2013,08,21,04,09,11.30
2013,08,21,04,10,11.30
2013,08,21,04,11,11.30
2013,08,21,04,12,11.20
2013,08,21,04,13,11.20
2013,08,21,04,14,11.20
2013,08,21,04,15,11.20
2013,08,21,04,16,11.20
2013,08,21,04,17,11.20
2013,08,21,04,18,11.20
2013,08,21,04,19,11.20
2013,08,21,04,20,11.20
2013,08,21,04,21,11.20
2013,08,21,04,22,11.30
2013,08,21,04,23,11.30
2013,08,21,04,24,11.30
2013,08,21,04,25,11.30
2013,08,21,04,26,11.30
2013,08,21,04,27,11.20
2013,08,21,04,28,11.20
2013,08,21,04,29,11.20
2013,08,21,04,30,11.30
2013,08,21,04,31,11.30
2013,08,21,04,32,11.30
2013,08,21,04,33,11.30
2013,08,21,04,34,11.30
2013,08,21,04,35,11.30
2013,08,21,04,36,11.30
2013,08,21,04,37,11.40
2013,08,21,04,38,11.30
2013,08,21,04,39,11.30
2013,08,21,04,40,11.30
2013,08,21,04,41,11.30
2013,08,21,04,42,11.30
2013,08,21,04,43,11.30
2013,08,21,04,44,11.30
2013,08,21,04,45,11.20
2013,08,21,04,46,11.20
2013,08,21,04,47,11.20
2013,08,21,04,48,11.20
2013,08,21,04,49,11.20
2013,08,21,04,50,11.20
2013,08,21,04,51,11.10
2013,08,21,04,52,11.10
2013,08,21,04,53,11.10
2013,08,21,04,54,11.10
2013,08,21,04,55,11.10
2013,08,21,04,56,11.10
2013,08,21,04,57,11.10
2013,08,21,04,58,11.10
2013,08,21,04,59,11.10
2013,08,21,05,00,11.10
2013,08,21,05,01,11.10
2013,08,21,05,02,11.10
2013,08,21,05,03,11.10
2013,08,21,05,04,11.10
2013,08,21,05,05,11.10
2013,08,21,05,06,11.10
2013,08,21,05,07,11.10
2013,08,21,05,08,11.10
2013,08,21,05,09,11.10
2013,08,21,05,10,11.10
2013,08,21,05,11,11.10
2013,08,21,05,12,11.00
2013,08,21,05,13,11.00
2013,08,21,05,14,11.00
2013,08,21,05,15,11.00
2013,08,21,05,16,11.00
2013,08,21,05,17,11.00
2013,08,21,05,18,11.00
2013,08,21,05,19,11.00
2013,08,21,05,20,11.00
2013,08,21,05,21,11.00
2013,08,21,05,22,11.00
2013,08,21,05,23,11.00
2013,08,21,05,24,11.00
2013,08,21,05,25,11.00
2013,08,21,05,26,11.00
2013,08,21,05,27,11.00
2013,08,21,05,28,10.90
2013,08,21,05,29,10.90
2013,08,21,05,30,10.90
2013,08,21,05,31,10.90
2013,08,21,05,32,10.90
2013,08,21,05,33,10.80
2013,08,21,05,34,10.80
2013,08,21,05,35,10.80
2013,08,21,05,36,10.80
2013,08,21,05,37,10.80
2013,08,21,05,38,10.80
2013,08,21,05,39,10.70
2013,08,21,05,40,10.70
2013,08,21,05,41,10.70
2013,08,21,05,42,10.70
2013,08,21,05,43,10.60
2013,08,21,05,44,10.60
2013,08,21,05,45,10.60
2013,08,21,05,46,10.60
2013,08,21,05,47,10.60
2013,08,21,05,48,10.60
2013,08,21,05,49,10.60
2013,08,21,05,50,10.50
2013,08,21,05,51,10.50
2013,08,21,05,52,10.50
2013,08,21,05,53,10.50
2013,08,21,05,54,10.50
2013,08,21,05,55,10.50
2013,08,21,05,56,10.50
2013,08,21,05,57,10.50
2013,08,21,05,58,10.50
2013,08,21,05,59,10.50
2013,08,21,06,00,10.50
2013,08,21,06,01,10.50
2013,08,21,06,02,10.50
2013,08,21,06,03,10.40
2013,08,21,06,04,10.40
2013,08,21,06,05,10.40
2013,08,21,06,06,10.40
2013,08,21,06,07,10.40
2013,08,21,06,08,10.40
2013,08,21,06,09,10.30
2013,08,21,06,10,10.30
2013,08,21,06,11,10.30
2013,08,21,06,12,10.30
2013,08,21,06,13,10.30
2013,08,21,06,14,10.30
2013,08,21,06,15,10.30
2013,08,21,06,16,10.40
2013,08,21,06,17,10.40
2013,08,21,06,18,10.30
2013,08,21,06,19,10.30
2013,08,21,06,20,10.30
2013,08,21,06,21,10.40
2013,08,21,06,22,10.40
2013,08,21,06,23,10.40
2013,08,21,06,24,10.30
2013,08,21,06,25,10.30
2013,08,21,06,26,10.30
2013,08,21,06,27,10.40
2013,08,21,06,28,10.40
2013,08,21,06,29,10.40
2013,08,21,06,30,10.40
2013,08,21,06,31,10.50
2013,08,21,06,32,10.50
2013,08,21,06,33,10.50
2013,08,21,06,34,10.60
2013,08,21,06,35,10.60
2013,08,21,06,36,10.60
2013,08,21,06,37,10.60
2013,08,21,06,38,10.60
2013,08,21,06,39,10.60
2013,08,21,06,40,10.60
2013,08,21,06,41,10.60
2013,08,21,06,42,10.60
2013,08,21,06,43,10.60
2013,08,21,06,44,10.60
2013,08,21,06,45,10.60
2013,08,21,06,46,10.60
2013,08,21,06,47,10.60
2013,08,21,06,48,10.60
2013,08,21,06,49,10.60
2013,08,21,06,50,10.60
2013,08,21,06,51,10.60
2013,08,21,06,52,10.60
2013,08,21,06,53,10.60
2013,08,21,06,54,10.60
2013,08,21,06,55,10.60
2013,08,21,06,56,10.70
2013,08,21,06,57,10.70
2013,08,21,06,58,10.70
2013,08,21,06,59,10.70
2013,08,21,07,00,10.70
2013,08,21,07,01,10.80
2013,08,21,07,02,10.80
2013,08,21,07,03,10.80
2013,08,21,07,04,10.90
2013,08,21,07,05,11.00
2013,08,21,07,06,11.00
2013,08,21,07,07,11.10
2013,08,21,07,08,11.20
2013,08,21,07,09,11.20
2013,08,21,07,10,11.20
2013,08,21,07,11,11.30
2013,08,21,07,12,11.30
2013,08,21,07,13,11.40
2013,08,21,07,14,11.50
2013,08,21,07,15,11.50
2013,08,21,07,16,11.60
2013,08,21,07,17,11.70
2013,08,21,07,18,11.70
2013,08,21,07,19,11.70
2013,08,21,07,20,11.80
2013,08,21,07,21,11.90
2013,08,21,07,22,11.90
2013,08,21,07,23,11.90
2013,08,21,07,24,12.00
2013,08,21,07,25,12.10
2013,08,21,07,26,12.10
2013,08,21,07,27,12.10
2013,08,21,07,28,12.20
2013,08,21,07,29,12.20
2013,08,21,07,30,12.30
2013,08,21,07,31,12.30
2013,08,21,07,32,12.40
2013,08,21,07,33,12.40
2013,08,21,07,34,12.50
2013,08,21,07,35,12.50
2013,08,21,07,36,12.60
2013,08,21,07,37,12.60
2013,08,21,07,38,12.70
2013,08,21,07,39,12.80
2013,08,21,07,40,12.80
2013,08,21,07,41,12.90
2013,08,21,07,42,13.00
2013,08,21,07,43,13.10
2013,08,21,07,44,13.10
2013,08,21,07,45,13.20
2013,08,21,07,46,13.20
2013,08,21,07,47,13.30
2013,08,21,07,48,13.30
2013,08,21,07,49,13.40
2013,08,21,07,50,13.50
2013,08,21,07,51,13.50
2013,08,21,07,52,13.60
2013,08,21,07,53,13.70
2013,08,21,07,54,13.80
2013,08,21,07,55,13.80
2013,08,21,07,56,13.90
2013,08,21,07,57,13.90
2013,08,21,07,58,14.00
2013,08,21,07,59,14.00
2013,08,21,08,00,14.10
2013,08,21,08,01,14.10
2013,08,21,08,02,14.20
2013,08,21,08,03,14.20
2013,08,21,08,04,14.30
2013,08,21,08,05,14.40
2013,08,21,08,06,14.50
2013,08,21,08,07,14.60
2013,08,21,08,08,14.70
2013,08,21,08,09,14.70
2013,08,21,08,10,14.80
2013,08,21,08,11,14.90
2013,08,21,08,12,14.90
2013,08,21,08,13,15.00
2013,08,21,08,14,15.00
2013,08,21,08,15,15.00
2013,08,21,08,16,15.10
2013,08,21,08,17,15.20
2013,08,21,08,18,15.30
2013,08,21,08,19,15.40
2013,08,21,08,20,15.60
2013,08,21,08,21,15.70
2013,08,21,08,22,15.90
2013,08,21,08,23,16.10
2013,08,21,08,24,16.20
2013,08,21,08,25,16.30
2013,08,21,08,26,16.30
2013,08,21,08,27,16.40
2013,08,21,08,28,16.50
2013,08,21,08,29,16.60
2013,08,21,08,30,16.60
2013,08,21,08,31,16.60
2013,08,21,08,32,16.70
2013,08,21,08,33,16.80
2013,08,21,08,34,17.00
2013,08,21,08,35,17.10
2013,08,21,08,36,17.20
2013,08,21,08,37,17.20
2013,08,21,08,38,17.20
2013,08,21,08,39,17.30
2013,08,21,08,40,17.30
2013,08,21,08,41,17.30
2013,08,21,08,42,17.30
2013,08,21,08,43,17.30
2013,08,21,08,44,17.30
2013,08,21,08,45,17.30
2013,08,21,08,46,17.30
2013,08,21,08,47,17.20
2013,08,21,08,48,17.20
2013,08,21,08,49,17.20
2013,08,21,08,50,17.20
2013,08,21,08,51,17.30
2013,08,21,08,52,17.40
2013,08,21,08,53,17.50
2013,08,21,08,54,17.60
2013,08,21,08,55,17.70
2013,08,21,08,56,17.80
2013,08,21,08,57,17.80
2013,08,21,08,58,17.90
2013,08,21,08,59,18.00
2013,08,21,09,00,18.10
2013,08,21,09,01,18.20
2013,08,21,09,02,18.30
2013,08,21,09,03,18.40
2013,08,21,09,04,18.50
2013,08,21,09,05,18.50
2013,08,21,09,06,18.60
2013,08,21,09,07,18.80
2013,08,21,09,08,18.90
2013,08,21,09,09,19.10
2013,08,21,09,10,19.20
2013,08,21,09,11,19.30
2013,08,21,09,12,19.40
2013,08,21,09,13,19.50
2013,08,21,09,14,19.60
2013,08,21,09,15,19.60
2013,08,21,09,16,19.60
2013,08,21,09,17,19.60
2013,08,21,09,18,19.60
2013,08,21,09,19,19.60
2013,08,21,09,20,19.60
2013,08,21,09,21,19.60
2013,08,21,09,22,19.70
2013,08,21,09,23,19.70
2013,08,21,09,24,19.80
2013,08,21,09,25,19.80
2013,08,21,09,26,19.80
2013,08,21,09,27,19.80
2013,08,21,09,28,19.80
2013,08,21,09,29,19.80
2013,08,21,09,30,19.80
2013,08,21,09,31,19.80
2013,08,21,09,32,19.80
2013,08,21,09,33,19.80
2013,08,21,09,34,19.80
2013,08,21,09,35,19.80
2013,08,21,09,36,19.90
2013,08,21,09,37,20.00
2013,08,21,09,38,20.00
2013,08,21,09,39,20.10
2013,08,21,09,40,20.10
2013,08,21,09,41,20.10
2013,08,21,09,42,20.10
2013,08,21,09,43,20.10
2013,08,21,09,44,20.10
2013,08,21,09,45,20.10
2013,08,21,09,46,20.20
2013,08,21,09,47,20.20
2013,08,21,09,48,20.30
2013,08,21,09,49,20.30
2013,08,21,09,50,20.40
2013,08,21,09,51,20.40
2013,08,21,09,52,20.50
2013,08,21,09,53,20.60
2013,08,21,09,54,20.70
2013,08,21,09,55,20.80
2013,08,21,09,56,20.80
2013,08,21,09,57,20.90
2013,08,21,09,58,21.00
2013,08,21,09,59,21.10
2013,08,21,10,00,21.10
2013,08,21,10,01,21.20
2013,08,21,10,02,21.20
2013,08,21,10,03,21.10
2013,08,21,10,04,21.10
2013,08,21,10,05,21.10
2013,08,21,10,06,21.20
2013,08,21,10,07,21.20
2013,08,21,10,08,21.20
2013,08,21,10,09,21.20
2013,08,21,10,10,21.20
2013,08,21,10,11,21.10
2013,08,21,10,12,21.10
2013,08,21,10,13,21.00
2013,08,21,10,14,21.00
2013,08,21,10,15,21.00
2013,08,21,10,16,21.00
2013,08,21,10,17,21.00
2013,08,21,10,18,21.00
2013,08,21,10,19,21.10
2013,08,21,10,20,21.10
2013,08,21,10,21,21.20
2013,08,21,10,22,21.20
2013,08,21,10,23,21.20
2013,08,21,10,24,21.10
2013,08,21,10,25,21.00
2013,08,21,10,26,20.90
2013,08,21,10,27,20.90
2013,08,21,10,28,20.90
2013,08,21,10,29,21.00
2013,08,21,10,30,21.10
2013,08,21,10,31,21.20
2013,08,21,10,32,21.20
2013,08,21,10,33,21.30
2013,08,21,10,34,21.30
2013,08,21,10,35,21.30
2013,08,21,10,36,21.30
2013,08,21,10,37,21.30
2013,08,21,10,38,21.30
2013,08,21,10,39,21.30
2013,08,21,10,40,21.40
2013,08,21,10,41,21.40
2013,08,21,10,42,21.50
2013,08,21,10,43,21.50
2013,08,21,10,44,21.50
2013,08,21,10,45,21.60
2013,08,21,10,46,21.60
2013,08,21,10,47,21.50
2013,08,21,10,48,21.50
2013,08,21,10,49,21.50
2013,08,21,10,50,21.50
2013,08,21,10,51,21.60
2013,08,21,10,52,21.70
2013,08,21,10,53,21.70
2013,08,21,10,54,21.80
2013,08,21,10,55,21.70
2013,08,21,10,56,21.70
2013,08,21,10,57,21.80
2013,08,21,10,58,21.80
2013,08,21,10,59,21.80
2013,08,21,11,00,21.90
2013,08,21,11,01,21.90
2013,08,21,11,02,21.90
2013,08,21,11,03,21.90
2013,08,21,11,04,21.90
2013,08,21,11,05,22.00
2013,08,21,11,06,22.00
2013,08,21,11,07,21.90
2013,08,21,11,08,21.90
2013,08,21,11,09,21.90
2013,08,21,11,10,22.00
2013,08,21,11,11,22.00
2013,08,21,11,12,22.00
2013,08,21,11,13,22.00
2013,08,21,11,14,21.90
2013,08,21,11,15,21.90
2013,08,21,11,16,21.90
2013,08,21,11,17,22.00
2013,08,21,11,18,22.10
2013,08,21,11,19,22.20
2013,08,21,11,20,22.30
2013,08,21,11,21,22.40
2013,08,21,11,22,22.50
2013,08,21,11,23,22.60
2013,08,21,11,24,22.70
2013,08,21,11,25,22.80
2013,08,21,11,26,22.80
2013,08,21,11,27,22.70
2013,08,21,11,28,22.60
2013,08,21,11,29,22.50
2013,08,21,11,30,22.50
2013,08,21,11,31,22.50
2013,08,21,11,32,22.50
2013,08,21,11,33,22.50
2013,08,21,11,34,22.50
2013,08,21,11,35,22.60
2013,08,21,11,36,22.70
2013,08,21,11,37,22.80
2013,08,21,11,38,22.90
2013,08,21,11,39,22.90
2013,08,21,11,40,23.00
2013,08,21,11,41,23.00
2013,08,21,11,42,23.00
2013,08,21,11,43,23.10
2013,08,21,11,44,23.20
2013,08,21,11,45,23.30
2013,08,21,11,46,23.40
2013,08,21,11,47,23.40
2013,08,21,11,48,23.50
2013,08,21,11,49,23.60
2013,08,21,11,50,23.70
2013,08,21,11,51,23.80
2013,08,21,11,52,23.80
2013,08,21,11,53,23.90
2013,08,21,11,54,23.90
2013,08,21,11,55,23.90
2013,08,21,11,56,24.10
2013,08,21,11,57,24.20
2013,08,21,11,58,24.30
2013,08,21,11,59,24.30
2013,08,21,12,00,24.40
2013,08,21,12,01,24.40
2013,08,21,12,02,24.40
2013,08,21,12,03,24.40
2013,08,21,12,04,24.40
2013,08,21,12,05,24.40
2013,08,21,12,06,24.30
2013,08,21,12,07,24.30
2013,08,21,12,08,24.30
2013,08,21,12,09,24.20
2013,08,21,12,10,24.10
2013,08,21,12,11,24.00
2013,08,21,12,12,24.00
2013,08,21,12,13,23.90
2013,08,21,12,14,23.80
2013,08,21,12,15,23.80
2013,08,21,12,16,23.80
2013,08,21,12,17,23.70
2013,08,21,12,18,23.70
2013,08,21,12,19,23.60
2013,08,21,12,20,23.40
2013,08,21,12,21,23.30
2013,08,21,12,22,23.40
2013,08,21,12,23,23.40
2013,08,21,12,24,23.50
2013,08,21,12,25,23.60
2013,08,21,12,26,23.70
2013,08,21,12,27,23.70
2013,08,21,12,28,23.70
2013,08,21,12,29,23.70
2013,08,21,12,30,23.70
2013,08,21,12,31,23.70
2013,08,21,12,32,23.80
2013,08,21,12,33,23.90
2013,08,21,12,34,24.00
2013,08,21,12,35,24.10
2013,08,21,12,36,24.20
2013,08,21,12,37,24.10
2013,08,21,12,38,24.00
2013,08,21,12,39,24.00
2013,08,21,12,40,24.00
2013,08,21,12,41,23.90
2013,08,21,12,42,23.90
2013,08,21,12,43,24.00
2013,08,21,12,44,24.10
2013,08,21,12,45,24.00
2013,08,21,12,46,24.00
2013,08,21,12,47,24.00
2013,08,21,12,48,24.00
2013,08,21,12,49,24.10
2013,08,21,12,50,24.10
2013,08,21,12,51,24.10
2013,08,21,12,52,24.00
2013,08,21,12,53,24.00
2013,08,21,12,54,23.90
2013,08,21,12,55,23.70
2013,08,21,12,56,23.70
2013,08,21,12,57,23.70
2013,08,21,12,58,23.70
2013,08,21,12,59,23.70
2013,08,21,13,00,23.80
2013,08,21,13,01,23.70
2013,08,21,13,02,23.50
2013,08,21,13,03,23.40
2013,08,21,13,04,23.40
2013,08,21,13,05,23.40
2013,08,21,13,06,23.50
2013,08,21,13,07,23.50
2013,08,21,13,08,23.60
2013,08,21,13,09,23.60
2013,08,21,13,10,23.70
2013,08,21,13,11,23.70
2013,08,21,13,12,23.80
2013,08,21,13,13,23.80
2013,08,21,13,14,23.90
2013,08,21,13,15,24.00
2013,08,21,13,16,24.10
2013,08,21,13,17,24.10
2013,08,21,13,18,24.10
2013,08,21,13,19,24.10
2013,08,21,13,20,24.00
2013,08,21,13,21,24.00
2013,08,21,13,22,23.90
2013,08,21,13,23,23.80
2013,08,21,13,24,23.80
2013,08,21,13,25,23.90
2013,08,21,13,26,23.90
2013,08,21,13,27,23.90
2013,08,21,13,28,23.80
2013,08,21,13,29,23.80
2013,08,21,13,30,23.80
2013,08,21,13,31,23.90
2013,08,21,13,32,24.00
2013,08,21,13,33,24.10
2013,08,21,13,34,24.20
2013,08,21,13,35,24.30
2013,08,21,13,36,24.30
2013,08,21,13,37,24.40
2013,08,21,13,38,24.40
2013,08,21,13,39,24.50
2013,08,21,13,40,24.40
2013,08,21,13,41,24.40
2013,08,21,13,42,24.40
2013,08,21,13,43,24.30
2013,08,21,13,44,24.30
2013,08,21,13,45,24.30
2013,08,21,13,46,24.30
2013,08,21,13,47,24.40
2013,08,21,13,48,24.40
2013,08,21,13,49,24.40
2013,08,21,13,50,24.50
2013,08,21,13,51,24.60
2013,08,21,13,52,24.70
2013,08,21,13,53,24.80
2013,08,21,13,54,24.90
2013,08,21,13,55,24.90
2013,08,21,13,56,24.80
2013,08,21,13,57,24.80
2013,08,21,13,58,24.80
2013,08,21,13,59,24.80
2013,08,21,14,00,24.80
2013,08,21,14,01,24.80
2013,08,21,14,02,24.80
2013,08,21,14,03,24.80
2013,08,21,14,04,24.80
2013,08,21,14,05,24.80
2013,08,21,14,06,24.90
2013,08,21,14,07,24.90
2013,08,21,14,08,24.90
2013,08,21,14,09,24.90
2013,08,21,14,10,25.00
2013,08,21,14,11,25.00
2013,08,21,14,12,25.00
2013,08,21,14,13,25.00
2013,08,21,14,14,25.10
2013,08,21,14,15,25.10
2013,08,21,14,16,25.20
2013,08,21,14,17,25.30
2013,08,21,14,18,25.30
2013,08,21,14,19,25.40
2013,08,21,14,20,25.50
2013,08,21,14,21,25.60
2013,08,21,14,22,25.60
2013,08,21,14,23,25.70
2013,08,21,14,24,25.80
2013,08,21,14,25,25.90
2013,08,21,14,26,25.90
2013,08,21,14,27,25.90
2013,08,21,14,28,26.00
2013,08,21,14,29,26.10
2013,08,21,14,30,26.20
2013,08,21,14,31,26.20
2013,08,21,14,32,26.20
2013,08,21,14,33,26.10
2013,08,21,14,34,26.10
2013,08,21,14,35,26.10
2013,08,21,14,36,26.10
2013,08,21,14,37,26.00
2013,08,21,14,38,26.10
2013,08,21,14,39,26.10
2013,08,21,14,40,26.00
2013,08,21,14,41,26.00
2013,08,21,14,42,26.00
2013,08,21,14,43,26.00
2013,08,21,14,44,26.00
2013,08,21,14,45,26.00
2013,08,21,14,46,25.90
2013,08,21,14,47,26.10
2013,08,21,14,48,26.10
2013,08,21,14,49,26.20
2013,08,21,14,50,26.20
2013,08,21,14,51,26.20
2013,08,21,14,52,26.10
2013,08,21,14,53,26.10
2013,08,21,14,54,26.10
2013,08,21,14,55,26.10
2013,08,21,14,56,26.00
2013,08,21,14,57,26.00
2013,08,21,14,58,25.90
2013,08,21,14,59,25.90
2013,08,21,15,00,25.90
2013,08,21,15,01,25.90
2013,08,21,15,02,25.90
2013,08,21,15,03,25.90
2013,08,21,15,04,25.90
2013,08,21,15,05,25.90
2013,08,21,15,06,25.90
2013,08,21,15,07,26.00
2013,08,21,15,08,26.10
2013,08,21,15,09,26.20
2013,08,21,15,10,26.30
2013,08,21,15,11,26.40
2013,08,21,15,12,26.50
2013,08,21,15,13,26.50
2013,08,21,15,14,26.50
2013,08,21,15,15,26.40
2013,08,21,15,16,26.40
2013,08,21,15,17,26.50
2013,08,21,15,18,26.60
2013,08,21,15,19,26.60
2013,08,21,15,20,26.70
2013,08,21,15,21,26.70
2013,08,21,15,22,26.80
2013,08,21,15,23,26.80
2013,08,21,15,24,26.90
2013,08,21,15,25,27.00
2013,08,21,15,26,27.10
2013,08,21,15,27,27.30
2013,08,21,15,28,27.50
2013,08,21,15,29,27.60
2013,08,21,15,30,27.60
2013,08,21,15,31,27.60
2013,08,21,15,32,27.50
2013,08,21,15,33,27.40
2013,08,21,15,34,27.30
2013,08,21,15,35,27.30
2013,08,21,15,36,27.30
2013,08,21,15,37,27.30
2013,08,21,15,38,27.30
2013,08,21,15,39,27.30
2013,08,21,15,40,27.30
2013,08,21,15,41,27.30
2013,08,21,15,42,27.40
2013,08,21,15,43,27.30
2013,08,21,15,44,27.30
2013,08,21,15,45,27.20
2013,08,21,15,46,27.10
2013,08,21,15,47,27.10
2013,08,21,15,48,27.20
2013,08,21,15,49,27.20
2013,08,21,15,50,27.10
2013,08,21,15,51,26.90
2013,08,21,15,52,26.60
2013,08,21,15,53,26.40
2013,08,21,15,54,26.40
2013,08,21,15,55,26.30
2013,08,21,15,56,26.20
2013,08,21,15,57,26.10
2013,08,21,15,58,26.10
2013,08,21,15,59,26.10
2013,08,21,16,00,26.10
2013,08,21,16,01,26.20
2013,08,21,16,02,26.20
2013,08,21,16,03,26.20
2013,08,21,16,04,26.20
2013,08,21,16,05,26.20
2013,08,21,16,06,26.20
2013,08,21,16,07,26.40
2013,08,21,16,08,26.50
2013,08,21,16,09,26.60
2013,08,21,16,10,26.60
2013,08,21,16,11,26.60
2013,08,21,16,12,26.60
2013,08,21,16,13,26.60
2013,08,21,16,14,26.60
2013,08,21,16,15,26.50
2013,08,21,16,16,26.50
2013,08,21,16,17,26.50
2013,08,21,16,18,26.40
2013,08,21,16,19,26.40
2013,08,21,16,20,26.40
2013,08,21,16,21,26.30
2013,08,21,16,22,26.30
2013,08,21,16,23,26.40
2013,08,21,16,24,26.40
2013,08,21,16,25,26.40
2013,08,21,16,26,26.40
2013,08,21,16,27,26.40
2013,08,21,16,28,26.40
2013,08,21,16,29,26.50
2013,08,21,16,30,26.50
2013,08,21,16,31,26.50
2013,08,21,16,32,26.40
2013,08,21,16,33,26.40
2013,08,21,16,34,26.40
2013,08,21,16,35,26.40
2013,08,21,16,36,26.30
2013,08,21,16,37,26.30
2013,08,21,16,38,26.30
2013,08,21,16,39,26.40
2013,08,21,16,40,26.50
2013,08,21,16,41,26.60
2013,08,21,16,42,26.70
2013,08,21,16,43,26.70
2013,08,21,16,44,26.70
2013,08,21,16,45,26.80
2013,08,21,16,46,26.80
2013,08,21,16,47,26.70
2013,08,21,16,48,26.60
2013,08,21,16,49,26.50
2013,08,21,16,50,26.50
2013,08,21,16,51,26.40
2013,08,21,16,52,26.50
2013,08,21,16,53,26.50
2013,08,21,16,54,26.60
2013,08,21,16,55,26.60
2013,08,21,16,56,26.70
2013,08,21,16,57,26.80
2013,08,21,16,58,26.90
2013,08,21,16,59,27.00
2013,08,21,17,00,27.00
2013,08,21,17,01,27.10
2013,08,21,17,02,27.20
2013,08,21,17,03,27.30
2013,08,21,17,04,27.30
2013,08,21,17,05,27.30
2013,08,21,17,06,27.30
2013,08,21,17,07,27.30
2013,08,21,17,08,27.30
2013,08,21,17,09,27.30
2013,08,21,17,10,27.30
2013,08,21,17,11,27.30
2013,08,21,17,12,27.20
2013,08,21,17,13,27.20
2013,08,21,17,14,27.20
2013,08,21,17,15,27.20
2013,08,21,17,16,27.10
2013,08,21,17,17,27.10
2013,08,21,17,18,27.10
2013,08,21,17,19,27.00
2013,08,21,17,20,27.00
2013,08,21,17,21,26.90
2013,08,21,17,22,26.90